RH
27 26 26 27 28 30 32 37 49 59 59 59 57 55 55 61 62 60 56 53 49 45 42 40 38 35 33 33 33 34 35 36 37 37 39 33 28 25 22 23 23 24 25 26 26 27 27 27 27 27 28 28 28 28 28 28 27 26 26 26 27 28 30 47 58 64 65 84 93 97 98 96 96 96 96 96 96 94 94 95 95 95 94 94 93 93 92 95 97 98 98 99 99 98 96 95 92 88 85 80 76 72 70
25 25 26 30 34 38 46 53 64 73 75 68 64 64 67 69 67 63 57 51 46 42 40 38 35 34 35 37 38 39 39 40 41 41 39 37 34 30 27 27 27 27 28 28 28 28 28 28 28 28 29 29 29 29 28 28 28 27 27 28 29 31 33 62 74 72 61 74 86 94 96 97 97 97 97 95 93 93 96 96 95 95 93 92 91 89 87 87 90 95 98 99 99 99 99 99 99 98 97 90 80 72 72
27 28 31 36 43 54 71 64 64 71 85 90 87 82 80 82 78 70 61 55 51 48 47 45 42 40 41 41 43 44 44 43 41 40 38 37 34 31 29 28 28 28 28 27 27 27 26 26 26 27 28 29 29 28 26 26 26 26 27 29 32 35 38 77 89 83 67 68 77 88 92 94 96 97 97 93 92 93 95 96 96 95 93 93 92 90 85 80 78 81 89 96 99 99 99 99 99 99 99 96 89 83 85
31 34 37 43 50 61 76 68 69 78 95 98 99 95 88 86 83 79 74 64 58 56 56 63 55 46 49 57 59 55 48 48 44 38 35 32 30 28 27 26 26 26 26 25 25 25 24 24 24 25 26 27 27 25 23 23 23 25 26 29 33 36 34 74 90 87 73 71 75 83 91 92 90 89 90 88 88 90 93 95 97 96 95 95 96 95 92 85 75 67 66 77 89 97 99 99 99 99 99 98 94 92 95
36 40 45 50 56 64 73 75 79 86 99 100 100 98 92 82 83 86 85 71 62 56 55 65 60 53 57 70 74 71 61 68 61 46 33 28 26 25 25 24 24 24 24 23 22 21 21 21 21 22 23 24 23 22 20 19 20 22 25 27 29 30 26 67 87 89 75 70 71 76 83 89 89 85 82 78 79 84 90 94 96 96 96 96 96 95 96 95 88 77 66 62 66 75 88 94 97 98 98 97 95 94 98
41 46 52 53 61 74 92 94 85 80 94 97 99 98 94 88 91 93 85 73 64 57 53 51 51 53 55 57 62 64 57 73 74 63 43 31 26 24 22 21 21 21 20 19 18 17 16 16 17 17 18 18 18 17 17 16 17 19 22 23 25 26 26 63 85 88 75 68 68 71 74 81 82 78 71 69 70 75 82 87 88 87 89 88 90 92 95 96 96 94 91 83 73 66 67 72 79 86 92 93 91 91 95
46 51 55 54 62 77 98 100 85 70 69 80 88 93 93 96 98 97 91 78 72 66 52 51 50 51 51 53 57 60 58 73 70 61 59 40 28 22 18 17 16 16 15 14 13 13 12 12 12 13 13 13 13 13 13 13 14 16 18 20 21 24 29 66 86 90 77 66 62 63 66 72 71 67 61 61 67 73 71 75 74 73 78 79 80 81 83 93 97 98 99 99 96 90 82 74 74 80 86 91 92 92 93
50 51 52 53 62 77 97 99 88 75 73 72 75 80 84 91 96 97 94 87 75 64 55 54 55 58 61 61 64 61 48 45 48 50 48 41 31 22 16 14 13 12 11 11 10 10 10 10 10 11 11 11 11 11 11 12 12 14 16 18 19 24 37 69 87 89 75 64 57 54 56 59 59 58 59 58 59 60 63 60 59 60 64 72 74 75 79 87 93 97 99 99 100 99 98 95 93 93 96 95 96 97 95
52 51 51 53 63 79 95 93 87 84 90 97 95 89 83 90 94 94 88 85 82 78 68 66 69 75 78 65 57 49 36 34 34 34 34 33 26 19 15 13 11 10 9 9 9 9 9 9 10 10 10 10 10 11 11 11 12 13 14 16 18 29 58 77 87 85 69 58 50 44 40 41 44 52 64 60 60 60 56 51 50 52 58 67 77 85 85 83 84 89 97 99 99 99 100 99 98 97 96 97 97 97 96
51 51 51 52 63 78 90 90 92 95 95 97 95 90 83 85 88 88 82 76 79 81 74 82 82 76 70 53 44 39 34 31 29 26 25 23 19 16 14 12 10 9 8 8 8 8 8 8 9 10 10 10 10 11 11 11 12 13 14 16 21 35 60 76 83 79 63 52 43 34 27 24 29 43 63 63 64 63 57 55 54 54 58 64 76 86 88 82 79 80 83 89 94 98 99 98 98 99 99 98 98 97 96
51 52 51 51 58 70 85 90 93 95 98 98 91 83 78 78 83 87 85 80 77 77 83 84 77 65 49 44 39 36 33 30 26 23 20 18 16 13 11 10 9 8 8 8 8 8 7 8 8 9 9 9 9 10 10 11 11 12 14 14 26 43 63 72 72 65 52 41 34 28 24 25 37 52 62 63 65 65 60 61 62 61 58 65 76 85 86 81 78 76 74 77 82 88 93 94 96 98 99 99 99 99 98
53 53 51 51 52 57 65 74 79 82 86 86 78 70 73 82 87 89 85 92 93 92 97 88 74 58 45 40 36 34 32 27 23 20 17 15 13 11 10 9 8 8 8 8 8 7 7 7 8 8 8 8 8 8 9 9 10 11 12 13 31 50 57 61 57 49 39 29 29 32 32 40 46 51 59 61 59 58 64 67 68 67 64 72 80 85 85 84 83 80 74 74 75 78 83 90 94 97 98 97 98 98 99
54 54 53 52 51 50 50 53 56 57 57 62 62 64 77 89 94 95 95 98 92 89 99 92 69 47 42 36 32 30 26 21 18 15 13 11 10 9 8 8 8 7 7 7 7 7 7 7 7 7 7 7 7 7 8 8 9 9 10 14 29 43 46 46 41 34 26 23 32 43 44 49 55 57 52 61 64 63 62 69 74 76 79 82 86 88 88 87 89 88 83 80 76 74 75 82 89 94 96 94 95 97 98
56 56 55 53 51 49 47 45 45 47 49 53 63 76 91 94 96 96 98 99 92 86 93 95 68 40 35 30 26 23 18 15 12 11 10 9 8 8 7 7 7 7 7 7 6 6 6 6 6 6 6 6 6 6 7 7 7 8 8 11 16 24 33 31 26 22 22 27 41 52 50 50 52 55 54 64 71 74 70 77 85 91 92 93 93 93 95 94 93 93 93 89 84 79 74 71 75 83 90 90 91 93 96
59 59 58 55 53 52 51 48 48 49 51 56 68 81 90 93 93 91 88 88 81 73 70 69 52 33 27 23 19 15 12 11 10 9 8 8 8 7 7 7 7 6 6 6 6 5 5 5 5 5 5 5 5 6 6 6 6 6 7 9 10 11 15 16 16 20 33 42 52 58 53 55 54 54 59 70 81 87 82 87 90 93 95 96 95 93 95 95 94 93 93 92 88 83 78 70 69 73 77 80 84 88 92
61 63 62 59 58 57 55 53 52 53 53 55 60 65 67 74 78 74 60 60 57 52 45 37 30 23 19 15 12 10 10 9 9 9 8 8 8 8 7 7 7 6 6 6 5 5 5 5 5 5 5 5 5 5 5 5 5 5 6 7 9 10 11 12 18 32 53 61 61 58 55 61 63 62 64 75 84 90 89 91 91 91 94 93 92 90 90 90 92 93 93 94 91 87 84 77 73 70 70 74 77 80 84
64 66 66 65 64 63 60 58 57 57 56 53 51 48 48 51 57 58 48 43 40 36 30 23 18 15 12 10 10 10 10 9 9 9 9 9 9 9 8 8 8 7 7 7 6 6 5 5 5 5 5 5 5 5 5 5 5 5 5 6 7 9 10 18 33 52 71 70 63 56 54 60 63 64 66 71 77 83 90 91 90 89 90 88 84 81 81 83 87 91 92 93 94 93 91 86 81 77 75 75 76 78 80
67 69 70 71 71 70 68 65 62 60 59 54 50 46 41 43 46 48 45 37 30 24 20 16 13 11 10 10 10 10 10 10 10 10 10 10 10 10 10 9 9 8 8 7 6 6 6 5 5 5 5 5 5 5 5 4 4 4 4 5 6 8 11 35 55 69 76 67 57 49 46 48 47 46 48 54 61 70 83 87 87 84 83 78 73 70 70 73 77 83 86 89 93 95 93 92 90 89 87 84 83 83 85
68 72 73 74 75 75 75 72 68 65 61 56 52 48 43 39 39 40 37 30 23 18 15 13 12 11 11 11 11 11 12 12 12 12 12 12 11 11 10 10 9 9 8 7 7 6 6 6 5 5 5 5 5 5 4 4 4 4 4 5 6 10 20 54 70 74 69 56 47 41 37 34 31 29 28 35 44 55 68 78 81 79 76 69 66 64 64 65 68 71 74 80 86 91 93 93 94 95 95 92 92 92 93
70 74 75 75 75 75 74 75 74 72 67 58 52 47 44 39 36 34 31 24 18 15 13 13 12 12 12 13 14 14 14 14 14 14 14 13 13 12 11 11 10 9 8 7 7 6 6 6 5 5 5 4 4 4 4 4 4 4 4 5 7 16 38 63 70 66 58 48 40 34 31 26 23 21 20 23 27 35 47 61 72 76 70 65 63 61 58 58 59 62 64 68 73 80 89 91 93 95 97 95 96 97 97
73 78 79 78 76 74 70 70 73 75 70 59 51 46 44 38 33 29 26 20 17 14 13 13 13 14 15 16 16 17 17 17 16 16 16 15 14 13 12 11 10 9 8 7 7 6 6 6 5 5 4 4 4 4 4 4 4 4 4 5 13 32 61 63 60 54 46 40 34 29 25 22 21 21 20 24 25 26 34 46 56 62 65 61 58 56 52 51 51 52 53 55 60 67 74 80 87 94 96 94 95 97 96
75 81 84 82 80 77 70 64 65 68 66 56 49 44 41 36 31 26 22 19 16 15 14 14 15 16 18 18 19 19 19 19 18 18 17 16 15 14 13 11 10 10 9 8 7 7 6 6 5 5 4 4 4 4 3 3 3 4 4 5 17 36 61 54 48 43 36 32 28 26 26 25 28 29 26 37 40 40 42 50 54 57 60 58 55 51 48 46 44 43 43 45 49 56 62 67 75 84 92 92 93 95 95
75 81 86 85 84 80 72 61 57 57 59 51 45 41 37 32 28 24 20 18 16 16 16 17 18 19 21 21 21 21 21 21 20 19 18 17 16 14 13 12 11 10 9 8 7 7 6 6 5 5 4 4 4 3 3 3 3 4 4 5 10 20 33 34 33 32 29 26 24 26 33 30 28 27 31 44 49 51 55 63 64 62 62 60 55 50 44 41 39 37 35 35 38 44 52 60 67 74 82 88 92 94 95
74 79 85 86 85 81 74 63 55 51 51 45 41 36 32 29 26 23 20 18 17 17 18 19 20 22 23 23 23 23 23 22 21 20 18 17 16 15 13 12 11 10 9 8 7 7 6 5 5 4 4 4 3 3 3 3 3 4 4 4 6 9 12 16 20 22 22 21 22 26 35 31 26 25 26 28 30 35 48 60 62 61 62 60 56 50 44 41 41 40 38 36 34 35 39 49 58 67 73 78 84 89 88
73 77 84 85 85 81 74 65 56 50 47 42 36 32 29 28 26 22 19 18 18 19 20 21 22 23 24 24 24 24 24 23 22 20 19 18 16 15 14 13 11 10 9 8 7 6 6 5 5 4 4 4 4 3 3 3 3 3 4 4 4 5 6 8 11 14 17 19 23 28 33 29 26 23 20 19 18 20 25 34 42 47 47 51 52 50 47 47 50 53 54 51 47 43 38 40 46 55 65 68 73 76 76
73 76 82 84 83 79 73 65 55 48 43 38 32 28 26 27 25 22 19 19 20 21 22 23 24 25 25 25 25 25 25 24 22 20 19 18 17 15 14 13 11 10 9 8 7 6 6 5 5 5 4 4 4 3 3 3 3 3 3 3 4 4 5 5 7 10 15 20 26 29 31 28 25 22 18 17 15 15 15 18 22 27 31 36 42 47 50 55 63 70 74 72 68 62 56 50 46 47 54 60 65 68 69
73 76 80 83 81 77 73 65 54 43 37 33 28 24 24 25 23 22 21 21 22 23 23 24 25 26 26 26 26 26 26 24 22 20 19 18 17 15 14 12 10 9 8 7 7 6 6 5 5 5 5 4 4 3 3 3 2 2 2 3 4 4 5 5 5 8 13 19 23 25 26 25 23 20 18 16 14 13 13 14 16 19 24 26 30 40 58 64 76 87 89 89 86 81 74 68 62 57 54 54 55 58 63
74 77 79 81 79 76 73 64 52 40 32 28 25 22 23 23 22 22 22 23 23 24 24 25 26 26 27 27 27 26 26 25 23 21 19 18 17 15 13 11 10 9 8 7 7 7 6 6 6 5 5 5 4 4 3 3 2 2 2 3 3 4 5 6 6 7 10 14 17 19 20 20 19 17 15 14 13 12 12 12 15 20 29 31 35 43 57 69 83 92 92 93 92 90 89 84 80 77 73 69 67 66 65
75 77 78 77 76 75 73 64 51 38 30 26 24 22 22 22 22 22 23 24 24 25 26 26 27 27 27 28 27 27 26 25 23 21 20 19 17 15 12 11 9 9 8 8 8 8 7 7 6 6 5 5 4 4 3 3 2 2 2 3 3 4 5 6 6 7 8 10 12 13 15 15 15 14 12 12 11 11 10 11 15 22 36 41 48 54 56 60 72 83 87 92 91 89 90 92 94 94 91 89 86 82 78
76 78 78 74 73 74 74 62 50 39 30 26 24 22 22 22 23 23 23 25 26 26 26 27 27 28 28 28 28 28 27 26 24 22 21 19 17 14 11 10 10 9 10 9 9 9 8 7 7 6 6 5 4 4 3 3 3 3 3 3 3 4 4 5 6 6 6 7 8 10 10 11 11 10 10 9 9 8 8 9 15 25 37 44 46 47 50 51 58 67 76 84 86 86 90 93 94 95 97 95 94 93 92
78 79 80 74 74 75 75 62 51 42 32 28 25 23 23 23 24 25 25 26 26 27 27 27 28 28 28 28 28 28 27 26 25 23 22 19 16 13 11 11 11 11 11 11 10 9 8 8 7 7 6 5 4 4 3 3 3 3 3 3 3 3 4 5 5 5 5 5 6 7 8 8 8 8 8 7 6 6 6 7 12 20 30 40 40 36 34 34 44 56 64 76 83 89 93 95 94 93 97 96 96 96 96
79 80 80 78 77 77 77 63 53 44 35 29 25 23 23 24 25 26 27 27 27 28 28 28 28 28 28 29 29 28 28 27 25 24 23 18 15 12 12 13 13 13 14 13 12 10 9 8 8 7 6 5 5 4 4 3 3 3 3 3 3 4 4 5 5 5 5 4 4 5 5 6 6 6 6 5 5 5 5 6 8 11 17 21 24 24 19 22 30 40 51 62 70 79 93 95 96 95 95 96 96 96 96
81 81 81 80 79 79 78 66 56 47 37 30 26 24 24 25 26 27 28 29 29 29 29 29 29 28 29 29 29 29 28 27 26 24 22 18 15 14 15 16 16 16 16 15 13 12 10 9 9 8 7 6 5 5 4 4 4 4 4 4 4 4 4 5 5 5 4 4 4 4 4 5 5 5 5 5 5 5 5 6 6 7 10 14 15 15 14 18 25 34 43 48 57 71 91 94 95 94 94 96 97 97 96
82 82 81 81 80 80 78 68 59 49 37 31 27 25 24 25 27 28 29 30 30 30 31 30 29 29 29 29 29 29 28 28 27 25 21 18 16 16 18 18 18 18 18 16 15 13 12 11 10 9 8 7 6 6 5 4 4 4 4 4 4 4 4 4 4 4 4 4 4 4 4 4 4 4 4 4 5 5 5 5 6 6 7 10 11 12 12 16 29 44 53 54 52 58 86 93 95 94 91 96 97 96 96
83 83 82 82 82 81 79 72 62 50 38 32 28 26 25 26 27 29 30 30 31 31 31 30 30 30 30 30 30 30 29 28 27 26 22 18 18 19 21 21 21 20 19 18 17 15 14 13 12 11 10 9 8 7 6 5 4 4 4 4 4 4 4 4 4 4 4 4 4 4 4 4 4 4 4 4 5 5 5 5 5 6 6 7 8 9 10 18 39 61 78 75 61 56 77 89 94 94 91 94 95 95 95
83 84 83 83 83 82 81 76 65 51 38 32 28 27 26 26 28 29 30 31 31 31 31 31 30 30 30 30 31 30 29 29 29 26 22 20 20 21 23 23 23 22 21 20 18 17 16 15 14 14 13 12 10 9 8 7 6 5 4 4 4 4 4 4 3 3 3 3 3 3 3 3 3 3 4 4 4 5 5 5 5 5 5 5 6 7 9 18 38 61 80 78 69 62 67 83 92 95 95 93 92 92 92
83 85 84 83 83 83 83 79 67 52 39 33 29 27 26 27 28 30 31 31 31 31 31 31 30 30 30 31 31 31 30 31 30 27 23 21 22 23 25 25 25 24 23 22 21 20 18 17 17 16 16 15 13 12 11 9 8 6 5 4 4 4 3 3 3 3 3 3 3 3 3 3 3 3 3 4 4 5 5 5 5 5 5 5 5 6 7 12 28 49 70 73 71 67 66 82 91 94 95 89 86 85 89
82 84 84 83 83 84 84 81 70 55 41 34 30 28 26 27 28 30 31 31 32 32 31 31 30 31 31 32 32 31 31 32 31 28 24 23 24 26 27 27 26 26 25 24 23 22 20 20 19 19 18 18 17 15 14 12 10 9 7 6 5 4 4 3 3 3 3 3 2 2 2 2 2 3 3 4 4 4 4 4 4 4 4 4 5 5 6 9 18 34 53 57 58 60 64 83 91 94 96 91 87 85 88
81 84 84 83 83 84 84 83 73 59 43 36 31 29 27 27 29 30 31 32 32 32 32 31 31 31 33 33 32 32 32 33 32 29 26 25 26 28 30 29 28 28 27 26 25 24 23 22 22 22 21 20 19 18 17 15 14 12 10 9 7 6 5 5 4 4 3 3 3 3 2 2 3 3 3 3 4 4 4 4 4 4 4 4 4 5 5 7 13 21 32 45 48 50 58 80 92 96 96 94 92 91 91
80 83 84 83 82 83 85 85 77 64 47 39 33 29 27 28 29 30 31 32 32 32 32 32 31 32 33 33 33 32 32 33 33 30 27 26 28 30 31 31 30 29 29 28 27 26 26 25 25 24 24 23 22 21 20 18 17 15 13 11 10 9 8 7 6 6 5 4 4 3 3 3 3 3 3 4 4 4 4 4 4 4 4 4 4 4 5 7 10 16 24 33 36 40 52 73 87 94 95 95 94 94 94
79 82 83 82 82 83 85 85 79 67 51 41 35 30 27 28 29 30 31 32 32 32 33 32 32 33 34 33 33 32 33 34 33 31 28 27 29 32 33 32 31 31 31 30 29 29 28 27 27 26 25 25 25 24 22 21 19 18 16 15 14 13 11 10 10 9 8 6 5 5 4 4 3 3 3 4 4 4 4 4 4 4 4 4 4 4 5 6 8 12 18 21 24 31 46 61 78 90 94 95 94 93 93
77 80 82 82 82 84 86 86 81 70 55 45 36 30 26 27 29 30 31 32 32 33 33 33 33 33 34 34 33 33 33 34 34 32 29 28 30 33 34 33 33 32 32 32 31 31 30 29 28 28 27 27 26 25 24 23 22 21 20 19 18 17 15 14 13 12 10 9 7 6 5 4 4 4 4 4 4 4 3 3 3 3 3 3 4 4 4 5 6 9 13 16 18 23 33 44 62 79 88 92 91 88 86
76 79 81 82 82 84 86 87 82 73 60 48 39 31 26 27 28 30 31 32 33 33 34 34 34 34 35 35 34 34 34 35 35 33 31 30 31 33 34 34 34 33 33 33 32 32 31 30 30 30 29 29 28 26 25 25 24 23 22 22 21 20 19 18 16 15 13 11 9 7 6 5 5 4 4 4 3 3 3 3 3 3 3 3 3 4 4 5 6 7 9 12 15 18 22 31 47 65 77 80 79 76 75
74 78 81 82 83 84 87 88 84 76 64 53 42 33 26 26 28 30 31 32 33 34 35 35 35 35 36 35 35 34 34 35 35 34 32 31 31 32 34 34 34 34 34 33 33 33 32 32 31 31 31 31 30 29 27 27 26 26 25 25 24 23 22 21 19 18 16 13 11 9 7 6 5 5 4 4 3 3 3 3 3 3 3 3 3 3 4 4 5 6 7 9 11 14 17 25 37 53 70 72 72 71 70
73 77 80 82 83 85 87 89 86 80 69 58 46 36 28 26 27 29 31 32 33 34 35 35 36 37 37 36 35 35 35 35 36 35 34 32 31 32 33 33 34 34 34 34 33 33 33 32 32 32 32 32 32 31 30 29 29 28 28 27 27 26 24 23 22 21 19 16 13 11 9 8 6 5 4 4 3 3 3 3 3 3 3 3 3 3 4 4 5 5 6 7 9 11 13 22 31 43 64 71 73 73 72
72 75 78 80 82 84 87 90 89 84 75 64 52 40 30 26 27 29 31 32 32 33 35 36 37 38 38 37 37 36 35 36 36 36 35 33 32 31 32 33 34 34 34 34 34 33 33 33 33 33 33 33 33 33 32 32 31 31 30 29 28 27 26 25 24 23 21 19 16 13 11 10 8 7 5 4 4 3 3 3 3 3 3 3 3 3 3 4 4 5 6 6 8 9 11 18 26 39 57 70 75 75 74
72 74 77 78 80 83 87 90 90 88 82 71 59 46 35 29 27 28 30 31 32 33 34 35 37 38 38 38 38 37 36 37 37 36 36 35 33 32 31 32 34 35 35 35 35 34 34 34 34 34 34 34 34 34 34 33 33 32 31 30 29 28 27 26 26 25 23 21 19 16 14 12 10 8 6 5 4 3 3 3 3 3 3 3 3 3 3 3 4 4 5 6 7 8 10 15 22 33 46 61 70 73 72
72 74 76 77 79 82 86 89 90 90 86 77 65 51 39 31 27 27 29 31 32 33 34 35 36 37 38 39 38 38 37 37 37 37 37 36 35 33 32 32 33 34 35 36 36 35 34 34 34 35 35 35 35 35 35 35 34 33 32 31 30 29 28 27 27 26 25 24 22 19 17 15 12 10 7 5 4 3 3 3 3 3 3 3 3 3 3 3 4 4 4 5 6 7 9 12 18 27 41 53 60 64 66
73 75 76 77 79 81 85 89 90 91 89 82 70 55 43 36 31 28 28 30 31 32 33 34 35 37 38 39 39 39 38 38 38 38 38 37 36 35 34 33 33 34 35 36 37 37 36 35 34 35 35 36 36 36 36 36 35 34 33 32 31 30 29 28 28 27 27 26 24 22 20 17 14 11 9 6 5 4 3 3 3 3 3 3 3 3 3 3 3 4 4 4 5 6 8 10 14 19 27 37 43 48 55
74 76 77 78 79 80 83 87 89 90 90 86 77 66 55 49 43 36 31 30 30 31 32 33 35 36 37 39 39 39 39 39 39 39 39 38 37 36 35 34 33 34 35 36 37 38 39 37 35 35 35 36 37 37 37 37 36 35 34 33 31 30 29 29 29 29 29 28 27 25 23 20 17 13 10 7 5 4 3 3 3 3 4 4 4 4 3 3 3 3 3 4 4 5 7 8 10 13 17 23 29 37 45
75 76 78 78 79 79 81 84 87 88 89 88 84 78 70 65 57 48 38 32 30 30 32 33 34 35 37 38 39 40 40 39 39 39 38 39 38 37 37 35 34 34 34 35 36 38 40 39 37 36 36 36 37 38 38 38 37 36 34 33 32 31 30 29 29 30 30 29 29 28 26 23 19 16 12 9 7 5 4 4 3 4 4 4 4 4 4 4 3 3 3 4 4 5 5 7 8 9 11 14 19 25 29
76 77 79 79 79 79 80 82 84 86 88 89 89 86 82 76 69 59 48 39 33 30 31 32 33 35 36 38 39 40 40 40 40 40 39 39 39 39 38 37 35 34 34 35 35 36 39 40 40 38 37 37 38 38 39 39 38 36 35 33 32 31 30 29 29 30 30 30 30 29 28 26 22 19 15 11 8 6 5 4 4 4 4 5 5 4 4 4 4 4 4 4 4 4 5 5 6 7 7 8 10 13 17
77 79 81 81 80 79 80 82 84 85 87 89 89 89 88 83 76 67 57 46 37 32 30 31 32 34 35 37 38 39 40 40 40 40 40 40 40 39 39 37 35 34 35 37 37 37 39 42 41 39 38 38 39 39 40 40 39 37 35 33 32 30 29 29 29 29 30 30 30 30 30 28 25 22 18 14 11 8 6 6 5 5 5 5 5 5 5 5 4 4 4 4 4 4 4 4 5 5 5 5 6 8 12
79 80 82 82 82 81 81 83 84 85 86 87 88 89 89 87 82 75 64 52 42 34 31 31 32 33 34 36 37 39 40 40 40 41 40 40 40 40 39 39 38 37 38 40 41 43 44 46 44 41 39 40 40 40 40 41 40 38 35 33 31 30 29 29 29 29 29 29 30 31 31 30 28 25 21 17 14 11 8 7 6 6 6 5 5 5 5 5 5 5 5 5 5 5 4 4 4 4 4 4 5 6 8
81 82 83 84 84 83 83 85 86 87 87 87 88 89 90 90 87 81 71 57 45 36 31 30 31 32 33 35 36 38 39 40 40 41 41 41 40 40 40 41 41 40 38 38 41 44 46 47 46 43 41 41 41 41 41 41 41 39 36 33 31 29 28 27 28 28 28 29 30 32 32 32 30 27 24 20 17 14 11 9 8 7 6 6 6 6 6 6 6 6 6 5 5 5 5 4 4 4 4 4 5 5 7
84 84 85 85 86 85 86 88 90 91 90 88 88 89 90 90 90 86 80 67 54 43 35 31 29 30 32 34 35 37 38 39 40 40 41 41 41 41 40 40 40 39 37 37 40 45 47 48 47 46 43 42 42 42 42 42 42 40 37 35 32 29 27 26 26 27 28 30 32 32 33 34 32 30 27 23 20 17 14 12 10 9 8 7 7 6 6 6 6 6 6 6 5 5 5 4 4 4 4 4 4 5 6
87 87 86 87 88 88 89 91 93 94 93 90 89 88 89 90 91 91 89 81 70 58 46 38 32 29 29 32 34 35 36 38 39 40 41 41 41 41 41 40 40 40 39 39 41 44 47 49 49 48 47 44 43 43 44 43 43 42 39 36 33 30 27 26 26 27 29 30 31 32 33 34 34 32 30 26 23 20 17 15 13 11 9 8 8 7 7 7 7 6 6 5 5 5 5 4 4 4 4 4 4 4 5
90 89 89 90 90 90 90 92 94 96 96 93 90 89 89 91 92 93 93 89 82 74 65 56 46 37 31 30 31 33 35 37 38 39 40 41 41 41 41 41 41 40 40 41 43 45 49 49 49 50 50 46 43 42 44 44 44 43 41 38 35 31 27 26 26 28 29 30 30 31 32 33 34 34 32 29 26 23 20 18 15 13 11 10 9 8 8 7 7 6 6 5 5 5 5 4 4 4 4 4 4 4 5
91 91 91 91 92 92 91 92 94 97 98 95 93 91 90 91 91 92 92 90 88 84 82 77 68 58 46 37 32 31 33 35 37 38 40 40 41 41 41 41 41 42 42 43 44 46 49 49 50 51 52 50 47 44 43 44 45 45 42 41 38 34 29 28 28 29 30 29 29 29 31 32 33 34 33 31 28 26 23 20 17 15 13 11 10 9 9 8 7 7 6 5 5 5 5 5 5 5 4 4 4 4 4
93 92 92 93 93 93 92 93 94 97 99 97 95 93 91 91 91 91 91 90 89 89 89 89 87 82 70 54 41 33 32 33 35 37 39 40 41 41 41 41 42 42 42 43 45 46 48 49 50 51 52 52 52 50 47 44 45 46 44 43 41 38 33 30 30 31 31 30 28 28 29 31 32 33 32 31 30 28 26 23 20 17 15 13 12 10 10 9 8 7 6 6 6 5 5 5 5 5 5 5 4 4 4
93 93 93 94 94 94 93 93 95 97 99 98 97 95 93 92 91 91 92 91 91 90 90 93 95 94 89 74 57 43 34 32 33 35 37 39 40 40 41 41 41 42 42 43 44 46 47 49 50 51 51 52 54 54 52 48 46 46 44 44 43 41 36 33 32 32 32 30 29 28 29 30 31 32 32 31 30 29 27 25 22 19 17 15 13 12 10 9 8 8 7 7 6 6 6 6 6 5 5 5 5 5 5
Wind_Speed
5 4 4 3 3 3 3 3 4 3 3 3 3 3 3 3 2 1 1 1 0 0 1 2 2 2 2 2 3 3 3 4 4 5 5 6 6 6 6 6 7 7 7 7 7 7 7 7 7 7 7 7 7 7 6 5 5 4 4 3 3 3 3 6 6 4 4 5 6 7 7 7 7 7 7 6 6 7 7 7 6 6 6 6 6 5 4 3 4 5 5 7 8 10 10 11 11 11 11 10 9 9 9
5 4 4 4 4 4 4 4 5 5 4 4 4 5 5 4 3 2 1 1 2 2 2 3 3 3 3 3 3 3 4 4 4 5 6 6 6 6 6 7 7 7 7 7 7 7 7 7 7 7 7 7 6 6 6 6 5 4 4 3 3 3 3 7 8 6 3 4 5 6 6 5 5 5 5 6 6 7 7 8 7 7 7 6 6 6 6 4 3 2 3 4 4 5 7 8 9 11 11 11 10 9 9
5 4 4 4 5 5 5 5 5 6 6 6 5 5 5 5 4 3 3 3 3 3 4 4 4 3 3 3 3 3 4 4 5 5 6 6 7 7 7 7 7 7 7 7 8 8 8 8 7 7 7 7 7 7 6 6 5 5 4 3 3 2 4 8 9 8 5 4 4 5 6 5 4 4 5 6 6 7 8 8 8 8 7 7 7 7 7 6 5 3 1 2 2 2 3 4 6 7 9 10 10 9 10
5 4 4 5 5 6 5 5 6 8 9 6 4 4 4 4 4 3 4 3 3 4 4 5 4 4 4 4 4 4 4 5 5 5 6 6 7 7 7 7 7 7 7 7 8 8 8 8 8 7 7 7 7 7 7 6 6 5 4 4 3 2 4 7 8 8 6 4 4 5 6 6 6 6 6 7 7 7 8 8 8 8 8 7 7 8 8 8 7 6 5 3 3 2 1 2 3 4 6 8 9 8 8
4 4 4 5 6 6 5 5 7 9 9 7 4 3 3 4 4 4 3 3 3 3 4 4 4 4 4 5 5 5 5 5 6 6 5 6 7 7 7 7 7 7 7 8 8 8 8 8 8 8 7 7 7 7 7 6 6 5 4 4 3 2 4 7 8 9 8 6 4 4 5 6 6 7 7 7 7 8 8 8 7 7 7 7 7 7 8 9 9 9 7 6 5 4 3 3 3 4 5 7 8 7 6
4 4 5 5 6 7 6 5 6 8 9 8 6 4 3 5 5 3 2 2 3 3 3 4 4 4 4 4 4 4 4 5 5 6 5 5 6 6 7 7 7 7 8 8 8 8 8 8 8 8 8 7 7 6 6 6 6 5 5 4 3 3 5 8 9 9 9 7 5 4 4 5 6 7 7 7 7 7 7 7 7 7 7 7 7 6 6 8 9 10 10 9 8 7 6 5 5 6 7 8 8 7 6
4 4 5 6 7 7 6 4 3 4 6 5 5 4 4 5 4 2 2 2 3 3 3 3 3 3 3 4 4 4 4 4 5 5 5 5 5 6 7 7 7 8 8 8 8 8 9 9 8 8 8 8 7 6 6 6 5 5 5 4 4 4 6 8 9 9 10 9 6 4 4 5 6 7 8 8 7 7 7 8 8 8 8 7 7 6 5 6 6 8 9 10 11 10 9 7 6 7 7 8 8 7 7
4 4 5 6 7 7 6 3 1 1 4 3 2 3 3 4 3 2 2 3 3 3 3 3 4 4 4 4 4 4 4 5 5 5 5 5 5 6 7 7 7 7 8 8 8 8 8 8 8 8 8 8 7 6 5 5 5 5 5 5 4 5 7 8 8 9 10 10 8 6 5 5 6 7 8 8 8 7 8 8 8 8 8 7 7 6 5 5 4 5 5 7 8 9 10 9 9 8 8 8 8 7 7
4 4 5 5 6 6 5 4 3 3 5 4 2 1 2 2 2 2 2 3 3 4 4 4 4 4 5 5 5 5 5 6 6 6 6 6 6 6 6 7 7 7 7 8 8 8 8 8 8 8 8 8 7 6 5 5 5 5 5 4 5 6 8 8 8 10 11 11 9 8 6 6 6 7 8 9 9 9 9 9 9 8 8 7 7 7 7 5 4 4 4 4 4 6 7 7 7 7 7 7 7 7 7
4 4 4 5 6 6 5 4 4 4 5 4 2 1 1 2 3 3 3 4 4 5 5 5 4 4 4 5 5 5 6 6 6 6 6 6 6 6 6 6 7 7 7 8 8 8 8 8 8 8 8 8 7 6 6 5 5 5 5 4 5 6 8 7 8 9 11 11 10 9 8 7 7 8 9 9 10 10 10 10 10 9 8 7 7 8 7 6 5 4 4 4 3 4 4 4 5 6 6 5 5 4 5
4 4 4 4 5 5 5 5 5 5 4 3 2 2 2 4 5 5 6 5 5 5 5 5 4 4 4 5 5 5 5 5 5 6 6 5 6 6 6 6 7 7 8 8 8 8 8 8 8 8 8 8 7 7 6 6 6 5 5 5 6 7 8 7 8 9 10 11 11 10 9 9 8 9 9 10 10 11 11 11 11 10 9 8 8 8 8 8 7 6 5 5 5 5 5 5 6 7 7 6 5 4 4
4 4 4 4 5 5 6 5 5 5 5 4 3 3 5 6 7 6 6 6 6 5 5 4 4 4 4 4 5 5 5 5 5 5 5 5 5 5 6 6 7 7 8 8 8 9 9 8 8 8 8 8 8 7 7 7 6 6 5 6 7 8 7 7 8 9 11 11 11 10 10 10 9 9 10 10 11 11 11 11 11 11 10 10 9 9 9 9 8 7 6 6 6 5 5 5 6 7 8 7 7 7 6
4 4 4 4 5 5 5 5 5 5 5 5 5 6 7 7 6 6 6 5 4 4 4 4 4 4 4 4 4 4 4 4 4 5 5 5 5 6 6 7 7 8 8 9 9 9 9 9 9 9 8 8 8 7 7 7 7 7 6 6 7 7 7 8 8 10 11 11 11 10 10 10 10 10 11 11 11 11 12 12 12 12 12 11 11 10 10 9 9 8 8 7 6 6 5 4 4 5 6 7 7 8 8
4 4 4 5 5 5 5 5 5 5 6 7 7 6 6 6 6 5 4 3 2 2 3 1 2 3 4 4 4 4 4 4 5 5 5 5 6 6 7 7 8 8 9 9 9 9 9 9 9 9 8 8 8 8 8 8 8 7 7 7 6 6 7 8 9 11 12 11 11 10 10 11 11 11 11 11 11 11 11 12 12 12 12 11 10 10 10 10 9 9 9 8 7 7 6 4 3 4 4 5 5 6 6
5 5 5 5 5 5 5 5 5 6 6 6 6 6 6 5 5 4 3 2 1 1 2 2 2 3 4 4 4 5 5 5 5 6 6 7 7 7 8 8 8 9 9 9 9 9 10 10 9 9 9 8 8 8 8 8 8 8 8 8 7 7 8 9 10 11 11 11 10 10 10 11 11 11 11 11 11 11 11 11 11 10 10 9 9 9 9 9 9 9 9 9 9 8 7 6 5 5 5 5 5 5 5
5 5 5 5 5 5 5 5 5 5 5 5 5 5 5 5 4 3 3 3 3 2 3 4 4 4 5 5 5 5 6 6 6 7 7 8 8 8 8 9 9 9 9 9 9 9 9 9 9 9 8 8 8 8 8 8 8 8 8 9 9 9 9 10 11 11 11 10 9 9 10 10 10 10 10 10 10 10 10 10 9 8 8 8 8 8 8 9 9 9 10 10 10 9 9 8 7 6 6 6 6 6 6
5 5 6 5 5 5 5 5 4 4 4 4 4 4 4 5 5 4 5 5 5 5 5 5 5 5 5 6 6 6 7 7 8 8 8 8 8 8 9 9 9 9 9 9 9 9 9 9 9 8 8 8 8 8 8 8 8 8 9 9 10 10 10 10 10 10 9 9 8 9 9 9 9 9 9 8 8 9 9 8 8 7 7 8 8 8 8 9 9 9 9 9 9 9 9 9 9 8 7 6 6 6 7
6 6 6 6 6 6 5 4 4 3 3 3 3 3 4 4 5 4 4 5 6 6 6 6 6 6 6 7 7 8 8 8 8 8 9 9 9 9 9 9 9 9 9 9 9 9 9 9 8 8 8 8 8 8 8 8 8 9 9 9 10 10 10 10 10 9 8 8 8 9 9 8 8 8 7 7 7 7 8 8 8 8 8 8 8 8 8 8 8 8 8 8 8 8 8 9 9 9 8 7 7 6 6
6 6 6 7 7 6 6 5 3 2 2 2 2 3 4 4 5 5 5 5 6 7 7 7 7 7 8 8 8 8 9 9 9 9 9 9 9 9 9 9 9 9 9 9 9 9 9 8 8 8 8 8 8 8 8 8 9 9 9 9 9 10 10 10 8 8 8 8 9 9 9 9 9 8 8 7 6 6 7 8 9 9 9 9 9 9 8 8 8 8 8 7 7 7 7 7 8 8 8 8 7 7 6
6 6 6 6 6 6 6 5 4 3 2 1 2 3 4 5 5 5 5 6 6 7 7 7 7 8 8 8 9 9 9 9 9 9 9 9 9 9 9 9 9 9 10 9 9 9 9 8 8 8 8 8 8 8 8 8 9 9 9 9 9 9 9 8 7 7 8 9 10 10 10 10 10 9 9 8 7 6 7 8 9 9 9 9 9 9 9 9 8 8 7 7 6 6 7 6 6 7 6 7 7 7 6
6 6 6 5 4 5 5 5 4 3 2 2 2 3 4 5 5 5 5 6 6 6 7 7 8 8 8 9 9 9 9 9 9 9 9 9 9 9 9 9 9 9 9 9 9 9 8 8 8 8 8 8 8 8 8 8 8 8 8 8 8 8 8 6 6 7 8 9 10 11 11 11 11 11 10 9 8 8 8 8 8 9 10 10 10 10 10 9 9 9 8 7 6 6 6 6 6 6 6 6 7 7 6
7 6 6 5 4 3 3 4 4 4 3 2 3 3 4 5 5 5 5 6 6 6 7 7 8 8 8 9 9 9 9 9 9 9 9 9 9 9 9 9 9 9 9 9 9 8 8 8 8 8 8 8 8 8 8 8 8 8 8 7 7 7 6 5 6 7 9 10 10 11 11 11 11 11 10 10 10 9 9 9 10 10 11 11 11 11 11 11 10 10 9 8 7 6 5 5 6 6 6 6 7 7 6
7 7 6 5 4 3 2 2 3 4 4 3 3 4 5 5 5 5 5 5 6 6 6 7 8 8 8 9 9 9 9 9 9 9 9 9 9 9 9 9 9 9 9 8 8 8 8 9 9 9 9 9 9 9 9 9 8 8 8 7 7 6 5 5 6 7 9 10 10 11 11 11 11 11 10 10 10 9 10 10 10 11 11 12 12 13 12 12 12 11 11 9 8 7 5 5 5 6 6 6 7 7 6
8 8 7 6 5 4 2 1 2 3 4 4 4 5 6 6 6 6 5 6 6 6 7 7 8 8 8 8 8 8 9 9 9 9 8 8 8 8 9 8 8 8 8 8 8 8 8 9 9 9 9 9 9 9 9 9 9 9 9 8 8 7 5 5 6 7 8 9 10 10 10 11 11 11 10 9 9 9 9 9 10 10 11 12 13 13 14 14 13 13 12 11 10 8 7 6 5 5 6 6 7 7 6
8 8 8 7 6 5 3 2 1 3 4 4 5 6 6 6 6 6 6 6 6 6 7 7 7 8 7 8 8 8 8 8 8 8 8 8 8 8 8 8 8 8 8 8 8 8 9 9 9 9 9 9 9 9 9 9 9 9 9 9 9 8 7 7 7 7 8 9 9 10 10 11 11 11 11 10 9 9 8 8 9 9 10 11 12 13 14 14 14 14 14 13 12 11 9 7 6 5 6 6 6 7 6
8 8 8 7 7 6 4 3 2 3 4 5 6 7 7 7 6 6 6 6 6 6 7 7 7 7 7 7 7 7 8 8 8 8 8 8 8 8 8 8 8 8 8 8 8 9 9 9 10 10 10 10 10 10 10 10 10 10 10 10 9 9 8 8 8 8 8 9 9 9 10 11 11 12 12 12 11 10 9 9 9 9 10 10 11 12 13 13 14 14 14 14 14 13 12 10 8 7 6 6 6 6 6
8 9 8 8 7 6 5 4 3 4 5 6 7 7 7 7 7 7 6 6 6 6 6 6 6 7 6 7 7 7 7 8 8 8 8 8 8 8 8 8 8 8 8 8 9 9 10 10 10 10 10 10 10 10 10 10 10 11 10 10 10 9 9 9 8 8 8 9 9 9 10 11 12 12 13 13 12 12 11 10 10 10 10 10 10 10 11 12 12 12 13 13 13 14 14 13 11 10 8 7 7 7 7
9 9 9 9 8 7 5 4 4 5 6 7 7 7 7 7 7 7 7 6 6 6 6 6 6 6 6 6 6 7 7 7 8 8 7 7 7 7 7 7 7 8 8 9 9 10 10 10 10 10 11 11 11 11 11 11 11 11 11 11 11 10 10 9 9 9 9 9 9 9 10 11 12 13 13 13 13 13 12 11 11 11 11 11 10 10 10 10 10 10 10 11 11 12 13 13 13 12 11 10 9 8 8
9 9 9 9 8 7 5 5 5 6 7 7 7 7 7 7 7 7 7 7 6 6 5 5 5 5 5 6 6 6 7 7 7 7 7 6 6 6 6 7 7 8 8 9 10 10 11 11 11 10 11 11 12 12 12 12 12 12 12 12 12 12 11 11 11 11 11 10 10 10 11 11 12 13 13 14 14 14 13 13 12 11 11 11 10 10 9 9 9 9 9 9 9 10 11 12 12 12 12 11 11 10 10
9 9 9 8 7 6 5 5 5 6 7 8 8 8 7 7 8 7 7 6 6 5 5 5 4 5 5 5 5 6 6 7 7 6 6 5 5 6 6 7 7 8 9 10 10 11 11 11 10 10 11 11 12 12 12 12 12 12 13 13 13 12 12 12 12 11 11 11 11 11 12 12 13 13 14 14 14 14 14 13 13 12 11 11 10 10 9 9 8 8 8 9 9 9 9 10 10 11 11 11 11 11 11
10 9 9 8 6 5 5 5 5 6 7 8 8 8 8 8 7 7 7 6 5 5 4 4 4 4 4 5 5 5 6 6 6 5 5 5 5 6 6 7 8 8 9 10 11 11 11 10 10 10 10 11 11 12 12 12 12 12 12 12 12 12 12 12 12 12 12 12 12 12 12 13 13 14 14 14 15 14 14 13 13 12 11 11 10 10 9 8 8 8 8 9 9 9 9 9 9 10 10 10 11 11 11
10 10 9 7 6 5 5 5 5 6 7 8 8 8 8 8 7 7 7 6 5 4 3 3 3 3 3 4 4 5 5 5 5 5 4 5 5 6 7 7 8 8 9 10 11 11 10 10 10 10 10 10 11 11 11 11 11 11 11 11 11 11 11 11 11 11 11 11 11 12 12 13 13 14 14 14 14 14 14 13 13 12 12 11 11 11 10 9 8 8 8 8 9 9 9 9 9 9 9 10 10 10 11
11 10 9 8 6 5 5 5 6 6 8 8 8 8 8 8 7 7 7 6 5 4 3 3 2 2 3 3 4 4 5 5 4 4 4 5 6 6 7 7 8 8 9 10 10 10 10 9 9 9 9 10 10 10 10 10 10 10 10 10 10 10 10 10 10 10 10 11 11 11 12 13 13 14 14 14 14 14 13 13 12 12 12 12 12 12 11 10 9 9 9 8 8 9 9 9 9 8 9 9 10 10 11
12 11 10 8 7 6 5 6 6 7 8 8 8 9 9 8 8 7 6 6 5 4 3 2 2 2 2 2 3 3 4 4 4 4 4 5 6 6 7 7 7 8 9 9 10 9 9 9 9 9 9 9 10 10 10 10 10 10 10 9 9 9 9 9 8 9 9 10 11 11 12 13 13 14 14 14 14 14 13 13 12 12 12 12 13 12 12 11 10 10 10 9 9 8 9 9 8 8 8 8 9 9 10
13 12 10 9 8 6 6 6 7 7 8 9 9 9 9 8 8 7 6 6 5 4 3 2 1 1 1 1 2 3 3 4 4 4 4 5 6 6 6 6 7 7 8 9 9 9 8 8 8 8 8 9 9 9 9 9 9 9 9 9 9 9 8 8 8 8 9 10 10 11 12 12 13 13 14 14 14 14 13 13 12 12 12 13 13 13 12 11 10 10 10 10 9 8 9 9 9 8 8 8 8 9 10
14 13 11 10 9 7 6 7 7 8 9 9 9 9 9 9 8 7 7 6 5 4 3 2 2 1 1 1 1 2 3 3 4 4 4 5 6 6 6 6 6 7 8 8 8 8 8 7 7 8 8 8 9 9 9 9 9 9 9 9 9 9 9 9 9 9 10 10 11 11 12 12 13 13 14 14 14 14 14 13 13 13 12 13 13 12 12 11 10 10 10 10 9 8 8 9 9 9 8 8 8 9 9
15 14 12 11 10 8 7 7 8 8 9 10 10 10 10 9 9 8 7 6 5 4 3 2 2 2 1 1 1 2 2 3 3 4 4 5 5 5 5 6 6 7 7 8 8 8 8 7 7 7 8 8 8 9 9 9 9 9 9 9 9 9 9 10 10 10 10 11 11 11 12 12 13 13 13 14 14 14 14 14 13 13 13 13 13 12 12 10 9 9 9 9 9 8 8 9 9 10 9 9 9 9 10
16 15 13 12 10 9 8 8 8 9 10 10 10 10 10 10 9 8 7 6 5 4 4 3 2 2 2 2 2 2 2 3 3 4 4 5 5 5 5 6 6 7 7 8 8 8 7 7 7 7 8 8 8 9 9 9 9 9 9 10 10 10 10 10 11 11 11 12 12 12 12 13 13 13 13 13 14 14 14 14 14 14 14 13 13 12 12 10 9 8 8 9 8 8 8 9 10 10 10 10 10 9 10
17 15 14 12 11 10 9 8 9 9 10 10 11 11 11 10 10 9 8 7 6 5 4 3 3 3 3 3 2 2 3 3 3 4 4 5 5 6 6 6 7 7 7 8 8 8 8 7 7 7 8 8 8 9 9 9 10 10 10 10 10 11 11 11 12 12 12 12 13 13 13 13 13 13 13 13 14 14 14 14 14 14 14 14 13 12 12 11 9 8 8 8 8 7 8 9 10 10 10 10 10 9 9
17 16 14 13 11 10 9 9 9 10 10 11 11 11 11 11 10 9 8 7 6 5 4 4 4 4 4 3 3 3 3 3 3 4 5 5 6 6 6 6 7 7 8 8 8 8 8 8 8 8 8 8 9 9 9 10 10 10 11 11 11 12 12 12 13 13 13 13 13 14 14 14 14 14 14 13 13 14 14 14 14 14 14 14 14 13 12 11 10 9 8 8 7 7 7 8 9 9 9 10 9 9 9
17 16 15 13 12 11 10 10 10 10 11 11 11 11 12 11 10 9 9 8 7 6 5 4 4 4 4 4 4 3 3 3 3 4 5 6 6 6 6 7 7 7 8 8 8 8 8 8 8 8 8 9 9 10 10 11 11 11 11 12 12 12 13 13 13 14 14 14 14 14 14 14 14 14 14 14 14 14 14 14 14 14 14 14 14 14 13 12 11 10 9 8 7 6 7 7 8 8 9 9 9 9 9
18 16 15 13 12 11 11 10 10 10 11 11 11 12 12 12 11 10 9 8 8 7 6 5 5 5 5 5 4 4 4 4 4 4 5 6 7 6 6 7 7 7 7 8 8 8 8 8 8 9 9 9 10 10 11 11 11 12 12 12 13 13 14 14 14 14 15 15 15 15 15 15 15 14 14 14 14 14 14 14 14 14 14 14 14 14 13 12 11 10 10 9 8 7 6 6 7 8 8 9 9 9 9
18 17 15 14 13 12 11 11 11 11 11 12 12 12 12 12 12 11 10 9 8 8 7 6 6 6 5 5 5 5 4 4 4 5 6 7 7 7 6 7 7 7 7 7 7 8 8 8 9 9 9 9 10 10 11 11 12 12 12 13 13 13 14 14 15 15 15 15 15 15 15 15 15 15 14 14 14 14 14 14 14 14 14 14 14 14 13 13 12 11 10 10 9 8 6 5 6 7 8 9 9 9 9
18 17 16 14 14 13 12 12 11 11 12 12 12 13 13 13 12 12 11 10 9 9 8 7 6 6 6 6 5 5 5 5 5 5 6 7 7 7 6 6 6 6 6 7 7 7 8 8 8 9 9 9 10 10 10 11 11 12 12 13 13 14 14 15 15 15 16 16 16 16 16 16 15 15 15 15 15 14 14 14 14 14 14 14 13 13 13 13 12 11 11 10 10 9 7 7 7 7 8 9 9 9 10
19 18 16 15 14 14 13 12 12 12 12 12 13 13 13 13 13 13 12 11 10 9 9 8 7 7 7 6 6 6 6 5 5 6 6 7 7 7 6 5 5 6 6 6 6 6 7 7 8 8 8 9 9 9 10 10 11 11 12 12 13 14 14 15 15 16 16 16 16 16 16 16 16 15 15 15 15 15 15 15 14 14 14 14 14 13 13 13 12 12 11 11 10 10 9 8 7 8 9 9 10 10 10
19 18 17 16 15 15 14 13 13 12 12 13 13 14 14 14 14 13 12 12 11 10 9 8 8 7 7 7 7 7 6 6 6 6 6 7 7 7 6 5 4 5 5 5 5 5 6 6 7 7 7 8 8 9 9 10 10 11 11 12 13 13 14 14 15 16 16 16 16 16 16 16 16 16 15 15 15 15 15 15 15 15 15 14 14 14 13 13 12 12 12 11 11 10 10 9 8 8 9 9 10 10 10
19 19 18 17 16 15 15 14 14 13 13 13 14 14 14 14 14 14 13 12 12 11 10 9 8 8 8 8 7 7 7 7 6 6 6 7 7 7 6 5 4 4 4 4 4 4 4 5 5 6 6 7 7 8 9 9 10 11 11 12 12 13 13 14 15 16 16 16 16 16 16 16 16 16 16 16 15 15 15 15 15 15 15 15 14 14 14 13 13 12 12 12 12 11 10 10 9 8 8 9 9 10 9
20 19 18 17 16 16 15 15 15 14 14 14 14 14 15 15 15 14 14 13 13 12 11 10 9 9 9 8 8 8 8 7 7 6 6 6 7 7 7 6 4 3 3 3 3 3 3 3 3 4 5 5 6 7 8 9 9 10 10 11 12 12 13 14 15 15 16 16 16 16 16 16 16 16 16 16 15 15 15 15 15 15 15 15 15 14 14 14 13 13 13 12 12 12 11 11 10 9 9 9 10 10 10
20 19 18 17 17 16 16 16 16 15 15 14 14 14 14 14 14 14 14 14 14 13 12 12 11 10 10 9 9 9 9 8 7 7 6 6 6 7 7 6 6 4 3 2 2 2 2 2 2 2 3 4 5 6 7 8 9 9 10 11 11 12 13 13 14 15 16 16 16 16 16 16 16 16 16 16 16 15 15 15 15 15 15 15 15 15 14 14 14 13 13 13 13 12 12 12 11 11 10 10 11 11 12
21 20 19 18 17 17 17 17 16 16 15 15 14 14 14 14 14 15 15 15 15 14 14 13 12 11 11 10 10 10 9 9 8 8 7 6 6 7 7 7 7 5 4 2 1 1 1 1 1 1 1 3 4 5 6 7 8 8 9 10 10 11 12 13 14 15 16 16 17 17 17 17 17 16 16 16 16 15 15 15 15 15 15 15 15 14 14 14 14 14 14 13 13 13 13 13 13 13 12 12 12 13 13
21 20 19 18 17 17 17 17 17 16 16 15 15 15 15 15 15 15 16 16 16 16 15 14 13 13 12 11 11 10 10 10 9 8 7 7 7 6 7 7 7 6 6 4 2 1 0 0 1 1 0 1 3 4 5 6 7 8 8 9 10 10 11 12 13 14 15 16 17 17 17 17 17 17 16 16 16 15 15 15 15 14 14 14 14 14 14 14 14 14 14 14 14 13 13 13 13 14 14 14 14 14 14
21 21 20 18 17 16 17 17 17 17 16 16 16 15 15 15 15 16 16 17 17 17 16 15 14 14 13 12 12 11 11 10 10 9 8 8 7 6 6 6 7 7 7 6 5 3 1 1 1 2 1 0 1 3 4 5 6 7 7 8 9 9 10 11 12 13 15 16 17 17 18 18 17 17 17 16 16 16 15 15 14 14 14 14 14 14 14 14 14 14 14 14 14 14 14 14 14 14 15 15 15 16 15
21 21 20 18 17 16 16 17 17 17 17 17 17 16 16 16 16 16 17 17 18 18 17 16 16 15 14 14 13 12 12 11 11 10 10 9 8 7 7 7 7 8 7 6 5 4 3 2 2 2 2 1 0 1 3 4 5 5 6 7 8 8 9 10 11 12 14 15 16 17 18 18 18 17 17 17 16 16 15 15 14 14 14 14 14 14 14 14 14 14 14 14 14 14 14 14 15 15 15 16 16 16 16
22 21 20 19 17 16 16 17 17 17 17 17 17 17 17 16 16 16 17 18 18 18 18 18 17 16 16 15 15 14 13 12 12 11 11 10 10 8 8 8 8 7 6 5 5 4 3 2 3 3 2 1 0 0 2 3 4 4 5 6 7 8 8 9 10 12 13 14 15 16 17 18 18 18 17 17 16 16 15 15 14 14 14 14 14 14 14 14 14 14 14 14 14 14 15 15 15 16 16 16 17 17 17
22 21 21 20 18 16 16 16 18 18 18 17 17 18 17 17 17 17 17 18 18 19 19 18 18 18 17 17 16 15 14 13 13 12 12 12 11 10 9 8 8 8 7 6 5 4 3 2 3 3 4 2 1 1 1 2 3 4 4 5 6 7 8 9 10 11 12 13 14 16 17 18 18 18 18 17 17 16 15 15 14 14 14 14 14 14 14 14 14 14 14 14 14 15 15 15 16 16 16 17 17 18 18
22 22 22 21 20 17 16 17 19 20 19 18 18 18 18 18 17 17 17 17 18 18 19 19 19 18 18 18 17 16 16 15 14 14 13 13 13 12 11 10 9 7 6 6 6 5 4 2 2 3 4 3 2 2 1 1 2 3 4 5 6 7 7 8 9 10 11 12 13 15 16 17 18 18 18 18 17 16 15 15 14 14 14 14 14 14 14 14 14 14 14 14 15 15 15 15 16 16 17 17 18 18 18
23 23 22 22 20 18 17 18 20 21 21 19 18 18 18 18 18 17 17 17 17 18 18 18 18 18 19 18 18 17 17 16 16 15 14 14 13 13 13 12 11 9 7 6 6 6 5 3 3 3 3 3 3 2 2 1 2 2 3 4 5 6 7 8 8 9 10 11 12 13 15 16 17 18 18 18 17 16 15 15 14 14 14 14 14 14 14 14 14 14 15 15 15 15 15 16 16 17 17 17 18 18 19
24 23 22 22 21 20 19 19 20 22 22 20 19 18 18 18 18 18 18 18 17 17 17 17 17 18 19 19 19 19 18 18 17 16 16 15 15 14 13 13 13 12 12 9 8 7 6 5 4 3 3 3 4 3 2 2 2 2 3 4 5 5 6 7 8 9 10 11 12 12 13 15 16 17 17 17 17 16 15 15 14 14 14 14 14 14 14 14 14 15 15 15 16 16 16 16 17 17 18 18 18 19 19
24 23 22 22 21 21 19 19 20 22 22 21 20 19 19 19 19 19 19 18 18 17 17 17 17 17 18 19 20 20 20 19 19 18 17 16 16 15 15 14 13 13 12 11 10 8 7 6 5 4 3 3 4 4 4 3 2 2 2 3 4 5 6 6 7 8 9 10 11 12 12 14 15 16 16 16 16 16 15 15 14 14 14 13 13 14 14 14 15 15 16 16 16 17 17 17 18 18 18 19 19 20 20
25 24 23 23 22 21 20 20 21 22 23 22 21 20 20 19 19 19 19 19 19 18 18 18 17 18 18 19 20 21 21 21 20 19 19 18 18 17 16 15 15 14 13 11 10 9 8 7 7 6 5 4 4 4 5 4 4 3 3 3 4 5 5 6 7 8 9 9 10 11 12 13 14 15 16 16 16 15 15 15 14 14 13 13 13 13 14 15 15 16 16 16 17 17 17 18 18 19 19 20 20 20 21
25 24 24 23 23 21 20 20 21 22 24 23 22 21 20 19 19 19 19 20 20 20 19 19 19 19 19 20 21 22 22 22 21 21 21 20 19 18 17 17 16 15 14 13 12 11 10 9 8 8 7 6 5 4 4 5 5 4 4 4 4 4 5 6 7 8 8 9 9 10 11 12 13 14 15 15 15 15 15 14 14 14 13 13 13 14 14 15 15 16 16 17 17 18 18 19 19 20 20 20 21 21 22
Wind_Direction
123 117 114 111 109 107 100 90 83 73 61 58 59 65 75 85 93 120 147 158 146 105 97 99 97 81 55 42 33 24 18 14 9 2 355 350 349 347 341 341 346 351 351 352 352 351 349 348 347 346 344 341 340 342 345 348 349 347 344 342 340 338 344 6 8 11 41 36 32 31 27 18 10 5 0 349 350 356 355 353 348 345 344 341 338 338 347 15 29 31 27 17 9 2 359 356 353 350 348 347 349 352 356
114 110 109 108 104 98 90 87 90 87 73 63 60 64 68 69 67 66 72 74 76 80 86 94 95 88 70 56 44 32 22 16 9 0 355 355 355 352 346 346 349 351 350 351 351 351 351 352 352 352 350 347 347 348 352 354 355 355 355 356 355 356 5 16 7 356 11 27 28 25 24 22 15 3 347 341 346 352 352 348 344 341 339 335 332 330 330 331 347 22 45 31 21 14 7 2 357 353 349 347 349 356 2
106 103 102 100 96 93 92 93 96 94 84 70 64 66 68 65 60 57 61 69 76 80 83 86 87 83 74 66 53 39 27 18 9 2 358 358 358 357 353 352 354 355 353 353 354 355 356 357 358 359 358 357 356 357 0 3 5 8 10 16 20 26 32 28 10 351 356 15 25 19 12 3 356 349 342 343 346 348 350 348 347 345 345 342 339 336 333 326 320 318 329 6 15 20 18 13 5 356 350 347 349 357 4
102 99 96 95 96 97 98 98 98 95 89 80 68 63 71 67 60 56 62 66 79 88 88 82 80 78 71 64 54 42 30 20 12 6 5 4 2 2 0 0 0 0 358 358 358 359 0 2 5 7 7 7 5 3 3 8 12 15 20 30 38 38 35 33 12 352 356 6 20 21 13 360 347 339 336 339 344 348 350 349 350 350 351 351 351 352 351 344 334 321 308 307 313 324 345 6 5 357 351 346 348 355 2
101 98 95 96 96 95 91 94 100 104 104 104 94 71 58 57 53 52 58 62 76 91 94 87 84 82 75 63 53 44 38 26 14 7 11 11 8 6 6 6 6 5 2 2 3 3 4 6 8 10 12 12 10 4 0 4 10 15 20 31 36 29 20 23 10 356 357 1 11 18 13 360 348 340 335 333 340 346 347 347 349 351 354 356 359 4 8 2 355 348 338 327 317 309 304 313 332 341 341 341 343 347 353
102 99 97 97 96 92 88 90 104 116 121 124 119 100 67 58 55 48 45 53 67 83 95 92 89 85 79 68 56 49 47 36 22 12 12 17 14 10 9 9 9 7 5 5 5 6 7 8 9 11 13 13 12 6 358 359 4 10 14 21 23 20 19 22 9 354 355 357 2 7 6 354 347 341 337 338 340 343 342 342 344 346 349 353 359 8 17 13 7 3 1 355 348 337 324 313 315 325 332 335 338 342 345
106 105 105 105 100 97 99 102 114 124 127 135 137 127 108 93 82 62 39 46 61 74 87 86 80 75 68 63 48 36 39 40 32 20 15 18 17 14 11 11 10 9 7 7 7 8 9 9 11 12 13 14 13 9 360 357 360 4 7 11 12 15 21 24 8 353 353 355 356 357 355 348 344 342 341 343 346 344 337 337 339 342 347 351 355 2 12 18 15 11 11 7 2 359 354 343 335 334 335 340 343 346 346
111 108 110 110 105 104 111 127 135 92 94 100 121 142 141 126 114 85 46 52 57 62 70 71 64 53 46 50 46 35 28 36 36 29 23 21 21 18 12 12 11 10 9 9 9 10 11 12 12 14 15 17 17 14 6 0 0 2 4 6 5 10 21 20 5 352 352 355 355 353 349 346 345 346 347 349 348 344 339 337 338 341 347 353 356 358 0 8 9 10 17 17 12 7 2 358 354 352 351 352 353 351 349
112 107 110 113 110 111 121 129 106 79 85 84 86 114 146 147 132 99 65 63 62 60 57 54 48 45 42 46 47 43 37 37 35 34 31 26 23 20 14 12 11 10 11 12 13 13 14 14 14 15 18 21 22 20 13 8 5 5 6 8 5 13 25 17 2 352 351 354 355 355 350 348 351 355 355 354 352 350 347 347 347 349 352 358 2 2 356 354 353 354 1 14 20 18 10 1 358 0 2 0 357 353 350
109 107 110 117 117 118 124 119 104 93 94 100 111 139 144 130 109 91 77 67 61 57 52 44 43 45 46 46 47 45 43 42 41 39 35 29 24 20 15 13 11 11 13 14 15 16 17 17 16 16 19 23 24 23 18 13 11 11 10 9 9 17 27 16 2 355 354 356 358 359 356 353 356 360 359 358 357 357 357 359 360 1 4 6 6 3 357 352 347 344 343 346 352 359 3 351 348 355 8 10 3 356 354
113 111 114 121 124 124 125 123 120 117 115 128 155 149 101 93 88 82 74 64 55 48 45 43 44 45 43 42 44 45 47 46 44 41 37 30 23 17 15 14 13 14 14 15 16 18 19 19 17 17 19 22 23 22 18 15 13 13 12 9 13 20 24 12 0 356 356 359 2 5 5 3 3 4 2 360 0 2 5 7 7 8 11 13 10 5 1 357 352 346 339 337 337 339 341 337 334 342 356 1 5 8 12
121 118 118 120 124 129 131 135 139 139 136 138 134 114 95 86 80 73 65 59 53 47 40 34 32 34 34 37 43 47 49 46 43 39 34 28 23 18 17 16 16 16 16 16 17 18 19 20 19 18 18 19 21 20 17 14 13 11 9 10 17 21 18 10 0 357 360 4 8 10 9 7 4 3 5 3 2 4 10 12 13 14 16 17 14 9 7 4 1 355 347 341 338 337 334 336 335 338 346 345 347 355 6
128 125 120 117 120 125 131 137 143 143 134 124 114 103 92 83 76 68 58 51 48 48 43 12 6 19 33 42 48 50 49 45 41 36 32 28 26 23 22 21 20 20 19 18 18 19 20 20 21 20 18 18 19 19 16 14 11 8 5 12 19 20 13 6 359 358 2 9 12 11 8 7 6 6 6 8 9 11 15 16 18 19 19 18 15 12 9 8 5 2 356 351 344 337 328 325 331 340 342 336 333 338 348
134 128 121 117 118 120 122 123 125 126 124 119 109 99 92 82 78 75 71 56 41 59 81 10 349 15 45 54 57 55 50 44 40 38 35 34 33 30 29 27 25 24 22 21 20 21 21 23 23 21 20 18 18 18 17 14 11 7 4 7 11 11 7 1 358 360 6 13 14 9 6 6 8 9 9 12 15 17 21 23 23 21 19 17 14 11 10 9 7 4 3 0 354 346 335 316 304 312 325 324 325 328 333
140 132 124 123 123 123 121 120 120 123 127 122 110 102 102 98 96 98 106 111 105 106 123 136 92 57 63 66 64 59 53 49 45 44 42 41 38 36 34 32 29 28 26 25 24 24 25 25 25 24 21 19 17 17 16 14 10 7 5 5 2 359 357 355 358 4 12 15 13 7 6 8 11 14 14 17 19 22 24 27 26 23 17 14 10 8 8 9 8 6 6 5 2 358 351 337 320 309 309 311 316 321 322
146 139 129 128 128 126 124 122 123 127 131 126 114 105 103 105 108 104 87 88 92 98 101 99 89 79 76 72 68 63 58 54 51 49 48 45 42 40 37 35 33 31 30 28 28 28 27 27 26 24 22 19 17 16 15 13 10 7 6 5 3 0 358 359 5 11 17 15 9 4 8 13 16 18 19 22 23 24 25 27 26 21 15 10 6 4 5 7 8 9 9 10 9 7 3 358 350 339 328 326 326 325 321
152 143 134 130 128 127 126 127 131 132 133 123 107 93 87 89 96 91 67 71 82 89 90 86 84 83 81 77 72 66 62 58 54 52 50 47 45 42 39 37 35 34 32 31 31 29 28 27 26 25 23 20 16 14 13 12 9 7 6 6 6 7 9 12 16 18 17 12 5 3 8 14 17 19 22 24 25 25 24 22 19 14 10 6 1 0 3 3 7 10 12 14 16 15 14 11 8 3 358 353 349 343 336
156 147 138 132 129 128 129 134 137 137 127 106 92 84 81 81 84 84 75 78 85 89 89 87 85 83 81 77 72 68 63 59 56 53 50 47 45 42 40 38 36 34 33 32 31 29 27 25 24 23 22 19 15 12 11 10 9 7 7 7 9 13 20 24 22 17 12 5 359 359 3 6 9 12 17 22 26 27 24 19 11 5 3 359 355 355 359 0 3 7 11 15 19 22 25 22 18 14 11 8 3 358 352
161 153 145 139 136 134 135 136 137 130 113 90 84 85 85 84 85 85 86 86 88 88 88 87 85 83 80 76 72 68 64 59 56 52 49 45 43 40 37 35 34 32 31 30 29 27 24 23 22 21 21 18 14 11 10 9 8 8 8 9 12 20 30 29 19 7 3 356 354 354 356 357 357 360 3 11 19 24 24 17 9 2 358 354 352 353 355 357 358 0 3 8 15 24 31 32 27 21 16 12 7 3 0
167 162 156 150 144 138 133 130 126 123 115 100 90 87 87 87 88 90 91 91 89 88 87 85 83 81 79 75 71 67 63 58 54 50 46 43 40 38 35 33 31 29 28 27 26 24 22 21 20 20 19 17 13 11 9 8 9 9 11 13 19 29 36 28 10 358 357 354 353 354 355 355 355 355 357 359 2 8 14 14 8 1 355 352 351 351 351 352 354 355 355 358 6 15 23 30 29 26 22 15 8 2 1
172 169 168 163 151 137 127 126 125 125 127 120 105 96 94 93 94 94 95 93 91 88 85 83 82 80 78 74 71 66 62 58 53 49 45 41 38 35 33 30 29 27 26 24 23 22 20 19 19 19 19 16 14 12 11 11 12 13 15 18 28 38 39 21 2 355 354 354 355 355 356 356 357 359 0 360 358 356 359 2 0 357 352 349 349 350 350 350 350 350 350 351 355 3 11 15 17 20 21 16 7 0 356
177 176 177 175 163 143 131 127 127 127 127 124 117 111 108 105 103 100 98 95 92 89 86 84 82 80 77 73 69 66 61 57 53 49 45 41 37 34 32 29 28 26 25 23 22 20 19 19 19 19 19 17 16 15 15 16 17 18 20 22 34 44 39 16 360 355 354 356 357 358 359 359 3 6 7 8 5 1 358 359 356 353 351 349 349 349 349 349 348 347 346 346 348 353 359 3 4 6 9 9 4 359 353
182 182 184 183 179 172 164 131 122 122 122 122 122 121 118 114 109 105 101 98 95 92 89 86 84 80 75 72 68 65 60 56 52 49 45 41 37 34 31 28 26 25 24 23 22 21 20 20 21 21 21 21 20 20 21 22 23 24 23 22 28 36 34 14 1 357 357 359 0 1 2 0 1 5 10 13 13 10 7 4 359 354 352 351 351 351 350 350 349 347 346 345 345 346 350 354 356 356 356 358 358 355 351
187 186 187 188 190 194 203 175 107 112 116 122 127 127 123 118 114 110 106 103 100 96 92 88 84 79 74 70 67 64 60 56 52 48 44 40 36 32 30 27 25 24 24 24 24 24 23 24 24 25 26 26 27 28 28 28 28 26 24 20 17 16 14 6 0 358 359 0 3 4 3 360 358 0 4 6 8 9 11 9 2 356 354 354 353 352 352 354 353 352 351 350 348 346 345 345 348 350 346 345 346 347 343
190 190 191 192 196 202 204 189 128 115 120 128 133 131 126 122 118 115 111 107 104 99 94 89 85 80 75 71 67 63 60 57 52 47 42 38 34 30 27 25 24 24 24 26 27 28 29 30 31 32 32 33 34 35 34 32 29 26 21 17 13 10 7 2 358 358 360 3 5 5 2 358 357 357 358 358 359 359 1 1 359 355 353 353 354 354 354 357 358 358 357 357 356 354 350 346 341 340 339 336 337 338 334
193 192 192 195 202 208 203 189 162 140 134 137 138 136 130 126 123 120 116 113 107 101 96 90 85 81 76 72 68 64 60 56 51 45 39 35 31 27 24 23 23 25 27 30 32 34 35 36 37 38 38 39 39 37 35 30 26 22 19 16 13 10 7 4 2 2 6 8 8 6 1 358 356 355 356 356 356 355 353 350 350 349 349 352 355 356 357 1 3 3 2 1 360 359 358 356 350 343 337 334 332 330 327
195 194 193 196 205 212 206 195 177 157 143 141 141 139 135 131 128 124 121 117 111 104 98 92 87 82 77 73 69 64 60 56 49 42 36 32 28 25 23 23 25 28 33 36 39 40 41 42 43 43 42 41 39 35 31 26 22 19 17 15 13 11 9 7 5 6 9 10 9 5 1 357 355 354 355 356 357 357 355 352 349 348 349 350 354 358 1 4 7 7 6 3 2 1 1 2 2 358 351 344 336 331 328
199 196 194 199 207 213 208 199 183 161 147 142 142 142 139 135 132 129 126 120 114 106 99 93 88 83 79 73 68 64 59 55 48 40 33 29 27 26 26 27 31 36 41 44 45 46 46 46 45 44 41 38 35 30 26 22 19 17 16 15 14 13 12 11 8 7 7 7 6 2 359 356 354 354 354 356 358 0 1 360 358 358 357 355 357 1 3 6 9 10 8 5 4 4 3 4 6 6 3 359 354 348 343
203 201 201 203 207 210 207 199 181 162 149 144 143 144 144 140 137 134 130 124 116 107 98 91 86 83 78 74 68 63 59 54 48 40 33 29 29 31 34 37 41 46 49 51 51 50 49 48 45 42 38 34 30 26 23 20 18 17 16 15 15 14 13 12 10 7 5 4 1 359 357 354 353 354 354 357 360 2 3 4 6 8 7 4 4 4 3 4 7 9 9 6 6 7 7 8 8 8 6 4 2 359 357
207 208 210 210 208 205 202 195 179 162 153 147 145 147 148 145 141 137 132 126 118 108 99 91 85 80 76 71 66 62 58 55 48 40 34 35 38 42 46 49 53 56 57 56 55 53 50 47 43 38 34 30 27 25 22 21 19 18 17 16 15 14 12 10 8 6 3 2 360 358 356 354 354 354 356 358 1 3 4 5 7 10 11 8 6 4 3 3 5 6 6 5 6 9 12 13 12 9 7 5 3 2 1
209 211 215 216 211 201 198 191 178 164 156 151 150 151 153 151 146 141 136 128 119 109 100 91 84 77 72 68 64 61 59 56 48 42 41 46 52 56 59 61 62 62 61 60 58 55 52 47 41 36 31 28 26 25 24 22 21 20 18 17 15 13 11 8 5 3 1 0 359 357 356 355 354 355 357 359 2 3 4 4 6 9 10 8 5 1 360 0 3 6 7 7 8 12 15 17 14 11 8 6 5 4 2
211 211 214 215 211 204 199 192 178 166 161 157 155 155 157 156 151 145 138 131 122 114 105 95 85 77 71 66 63 61 60 57 49 46 52 62 68 70 70 70 69 67 64 62 60 57 53 48 41 35 31 28 27 26 25 25 24 22 21 18 16 14 11 8 5 2 0 360 359 357 356 356 355 355 357 359 2 3 4 4 4 4 5 5 2 359 357 357 0 4 6 7 9 14 17 18 16 12 8 8 7 5 4
212 211 211 212 210 206 203 195 184 173 166 163 160 159 161 160 156 149 142 135 128 122 115 105 91 79 71 66 64 64 62 59 55 54 63 74 78 78 77 76 73 70 67 65 62 59 54 48 41 35 32 29 28 28 28 27 27 25 23 21 18 16 13 11 7 4 1 0 359 358 357 356 355 355 356 358 1 3 4 4 4 2 2 2 1 1 1 2 3 3 4 3 8 15 17 18 17 13 9 9 7 6 6
212 210 210 209 209 208 204 197 189 180 172 168 164 163 164 164 161 154 147 141 135 131 126 118 105 90 76 70 68 68 67 66 64 65 74 83 86 85 83 81 77 74 71 68 65 61 56 49 42 36 33 31 31 31 31 30 30 28 26 24 22 20 18 16 13 9 6 4 1 360 358 357 356 356 356 357 359 2 4 5 4 3 2 1 1 2 5 10 12 10 5 3 6 13 16 16 15 15 12 10 8 8 8
212 211 209 208 208 206 204 200 194 185 177 173 169 167 168 168 166 160 153 147 143 140 140 137 132 117 93 82 77 76 77 76 74 78 85 90 92 91 88 84 81 79 76 73 70 65 59 51 45 39 36 35 34 34 34 33 33 31 30 28 27 25 23 22 19 15 11 7 4 2 360 358 357 356 356 356 358 360 3 4 4 4 3 2 2 4 7 15 19 16 10 6 6 11 15 14 12 11 9 8 7 7 8
211 210 209 208 207 205 203 202 198 190 182 177 172 171 171 172 170 166 159 153 150 149 153 155 161 167 164 127 99 92 91 88 88 91 97 99 98 97 92 88 86 84 82 79 75 70 63 56 49 43 40 39 38 38 37 36 35 34 33 31 30 29 27 25 22 18 15 10 7 3 1 359 357 356 356 356 357 358 0 2 4 4 4 4 4 4 7 16 21 18 13 9 7 10 15 15 12 9 6 4 3 4 6
212 211 210 209 207 205 203 203 200 194 186 181 176 174 174 175 174 171 165 161 158 157 161 170 181 193 198 182 146 120 110 101 98 101 109 110 107 103 96 93 91 89 85 83 79 75 68 62 55 50 46 44 43 41 39 38 37 35 34 33 31 30 28 25 23 19 16 12 8 5 2 360 358 357 357 356 357 357 358 359 1 3 4 5 5 5 6 12 19 20 13 9 9 12 17 16 13 10 6 3 1 3 6
212 212 211 209 207 205 203 204 201 197 191 184 179 176 177 179 178 175 171 166 163 163 168 182 196 204 206 198 175 147 129 113 107 112 119 120 114 107 101 97 95 92 88 86 82 77 72 66 60 54 50 47 45 43 40 39 38 36 34 33 31 30 28 26 23 20 16 13 10 6 4 1 360 358 358 357 357 357 357 357 358 360 2 4 5 5 4 7 13 17 14 8 9 14 20 19 16 11 8 4 4 7 9
214 213 213 211 207 205 203 203 203 200 195 188 182 180 180 181 181 179 175 171 168 169 175 189 203 211 212 203 186 163 141 123 119 125 130 128 120 112 105 101 98 95 92 87 83 79 74 69 63 58 53 49 46 43 40 38 36 35 33 32 30 29 28 26 24 21 17 14 11 8 6 4 2 0 359 358 358 357 357 356 356 356 358 0 3 4 4 3 6 11 12 8 10 16 23 22 18 13 9 5 6 10 12
215 215 214 212 208 205 203 204 205 204 198 191 185 183 184 185 184 182 179 175 172 173 180 194 206 214 214 206 192 173 153 136 133 138 140 134 126 117 109 104 100 96 92 88 84 79 75 70 65 60 55 50 46 42 39 37 35 33 31 30 29 27 26 25 23 21 18 15 12 10 7 5 3 2 0 359 358 357 356 355 354 354 355 356 359 1 2 1 1 3 6 5 8 14 22 23 20 14 8 5 6 8 10
216 217 216 213 209 205 204 205 207 207 201 195 189 187 186 187 187 185 183 179 177 178 183 195 208 214 214 206 195 180 163 149 147 149 148 140 131 121 111 105 101 97 93 89 84 80 76 71 66 61 55 50 45 41 38 35 33 31 29 28 27 26 24 23 21 19 17 15 13 11 9 6 4 3 1 359 358 356 355 354 353 352 352 353 355 357 359 359 358 358 359 359 0 6 15 20 18 13 7 4 3 3 4
217 218 217 215 210 206 205 206 209 209 205 199 194 190 189 189 190 189 186 183 181 181 186 198 208 214 214 208 197 183 170 160 159 157 153 146 137 125 114 106 102 98 94 90 86 82 77 72 67 62 56 50 45 41 38 34 32 29 28 26 25 24 23 22 20 18 17 15 13 11 9 7 5 3 1 359 358 356 355 353 352 350 350 350 351 353 355 356 355 354 354 354 354 356 2 11 12 9 4 1 358 357 357
218 219 219 216 212 208 206 207 210 211 208 203 198 195 193 193 193 192 190 187 185 185 188 197 209 215 216 210 200 187 175 169 168 164 157 150 142 130 118 109 103 99 96 92 88 83 79 73 69 63 57 51 46 42 38 35 32 30 28 26 25 24 23 21 19 18 16 15 13 11 9 7 5 3 1 359 357 355 354 352 350 349 348 348 349 350 350 352 351 351 349 349 349 348 348 353 360 1 358 356 353 351 352
218 220 220 217 213 210 208 209 211 212 211 207 203 199 197 196 196 195 194 192 190 189 190 197 207 215 217 214 204 192 180 174 172 169 161 157 150 139 125 113 105 101 97 93 89 84 79 74 69 64 58 53 48 43 39 36 34 31 29 27 26 24 23 21 19 18 16 15 13 11 9 6 4 2 360 358 356 354 353 351 349 348 347 346 347 347 348 348 348 347 346 344 344 343 342 340 346 352 353 352 349 348 349
219 220 220 218 215 211 210 211 212 213 213 210 207 203 201 200 199 198 197 196 195 194 194 198 207 215 218 216 208 196 185 179 176 173 167 164 160 152 139 122 108 101 97 93 91 86 81 75 70 64 58 53 48 44 41 38 36 33 30 28 26 25 23 21 19 18 17 15 13 11 8 5 2 0 358 357 355 353 351 350 348 346 345 345 345 346 346 345 345 344 343 341 340 338 338 337 340 344 349 349 347 346 347
219 220 220 219 216 213 211 213 214 214 214 213 210 207 205 203 202 201 200 199 200 200 199 201 208 215 219 218 212 202 192 185 182 178 174 171 170 167 157 140 119 105 96 93 91 88 83 77 70 64 58 53 49 45 43 40 37 35 32 29 27 25 23 22 20 19 17 16 13 10 7 3 1 359 357 356 354 352 350 348 347 345 344 344 344 344 344 344 343 342 341 339 337 335 333 333 335 339 344 346 345 344 343
219 220 221 221 218 214 213 214 215 216 215 215 213 210 208 206 204 204 203 203 204 204 204 206 210 217 221 222 217 209 199 192 189 185 181 177 177 178 176 165 143 118 102 93 89 87 85 79 72 64 58 53 48 45 42 40 38 35 31 29 26 25 23 22 20 19 18 16 13 9 6 2 360 357 356 354 353 351 349 347 346 344 343 342 342 342 342 342 341 340 339 338 336 333 331 329 330 333 336 337 337 338 337
220 221 222 222 220 217 215 216 217 217 216 216 215 213 211 209 208 208 207 207 208 208 208 210 214 219 223 224 222 216 207 200 196 193 189 185 184 184 186 183 174 151 120 99 90 87 86 84 76 66 57 51 46 43 41 39 36 33 30 28 26 24 22 22 20 19 18 16 13 9 5 2 359 356 354 353 351 350 348 346 344 343 342 341 341 340 340 340 339 339 338 336 335 332 329 326 324 326 330 329 330 329 329
220 221 222 223 221 218 216 217 218 218 218 217 216 215 213 213 212 212 212 211 211 211 211 212 216 220 223 226 226 222 215 208 203 201 198 195 193 192 192 193 192 185 163 124 98 85 85 90 87 71 56 48 43 40 39 37 34 30 28 26 23 22 22 21 20 18 17 15 12 8 5 1 358 355 353 351 350 348 346 345 343 342 341 340 339 338 338 337 337 336 335 334 333 332 328 325 321 319 319 321 323 324 325
221 221 222 223 222 220 218 217 218 218 218 218 217 216 215 215 216 216 216 215 214 213 213 214 216 220 223 227 228 227 222 216 211 209 207 205 201 200 200 200 200 200 197 179 135 94 81 104 130 106 55 44 39 37 35 33 30 27 25 23 20 18 19 19 19 18 17 15 12 8 4 1 357 354 352 350 348 347 345 344 342 341 340 339 338 337 336 335 334 334 333 332 331 330 328 324 321 317 314 315 317 320 322
222 222 223 224 223 222 220 218 218 218 218 218 218 217 217 217 218 219 219 218 217 216 215 216 218 220 223 226 229 230 227 223 218 216 212 208 205 203 204 204 205 208 212 212 205 180 78 153 197 198 135 34 34 33 31 29 26 22 20 18 16 15 15 16 17 17 16 14 11 7 3 0 357 354 351 349 347 345 344 343 341 340 339 337 336 335 334 333 332 331 330 330 329 328 326 324 321 318 315 314 315 317 319
224 224 224 225 225 224 222 220 219 218 219 220 219 219 218 219 220 221 221 221 220 219 218 218 219 221 224 226 229 230 230 227 225 222 217 212 208 205 203 205 209 213 216 223 225 229 241 241 213 204 211 343 26 28 26 24 20 18 15 14 12 11 11 13 15 16 16 14 11 7 2 359 356 353 350 348 346 344 342 341 340 339 337 336 335 333 332 331 330 329 328 328 327 325 324 322 320 318 316 315 315 315 317
225 226 226 227 227 226 224 222 221 220 220 221 222 221 221 222 223 224 224 224 223 222 220 220 220 222 224 226 228 230 231 230 229 227 224 218 213 211 209 208 210 213 217 227 235 237 235 234 222 208 195 201 1 20 22 18 14 12 11 9 6 5 6 9 12 13 14 13 10 5 1 358 355 352 350 347 345 343 341 339 338 337 336 334 333 332 331 330 329 328 327 326 325 324 323 321 320 318 317 316 316 316 318
226 227 227 227 228 227 226 225 224 222 222 222 223 223 224 224 225 226 227 226 225 224 223 222 222 222 224 226 228 230 232 232 232 230 228 224 220 217 216 212 209 206 205 219 235 240 229 215 209 209 203 191 186 1 15 9 7 6 5 1 359 358 360 3 7 10 11 10 8 4 360 356 353 351 349 346 344 342 340 338 337 335 334 333 332 331 330 329 328 327 327 325 325 323 322 321 319 318 318 317 317 317 319
226 226 227 228 228 228 228 228 228 226 225 224 224 225 226 226 228 229 229 229 229 227 226 226 225 224 225 227 229 231 233 234 234 233 231 229 226 223 221 216 212 210 215 221 223 221 217 200 187 192 206 199 205 227 318 350 355 357 357 354 352 350 351 354 360 4 6 8 7 3 359 355 352 350 348 345 343 340 338 337 335 334 333 332 331 330 329 328 328 327 326 325 324 323 321 320 320 319 318 318 318 318 318
226 226 227 228 228 229 230 232 231 230 228 227 227 227 227 228 229 231 232 232 231 231 230 229 229 228 228 229 231 233 235 236 237 237 235 233 231 230 229 226 221 216 219 222 221 219 216 211 201 204 211 207 212 222 241 306 338 344 346 346 345 342 342 346 351 357 2 5 5 2 357 353 351 348 346 344 342 339 337 335 334 333 332 330 330 329 329 328 327 327 326 324 323 322 321 321 320 319 319 319 318 318 318
226 226 227 227 228 229 231 233 234 233 230 230 229 229 229 229 230 231 232 233 233 233 233 233 233 233 233 233 234 235 237 238 239 239 238 237 235 234 233 233 233 233 234 232 230 228 229 232 226 224 232 224 216 214 228 267 314 331 337 339 338 336 335 337 344 350 357 0 1 359 356 352 349 346 344 342 340 338 336 334 333 332 330 330 329 329 328 328 327 326 325 325 324 323 322 321 321 320 319 319 319 318 317
226 226 227 227 228 229 231 234 235 235 233 231 231 232 231 231 231 231 232 232 233 233 233 235 236 237 236 236 236 236 238 239 240 240 240 240 238 237 235 235 237 241 244 246 243 238 235 236 227 221 232 231 231 231 231 245 277 310 327 330 330 328 327 330 336 344 351 355 356 355 352 349 346 343 341 340 338 337 335 333 332 331 330 330 329 328 328 328 327 327 326 325 325 324 323 322 322 321 320 320 319 318 318
227 227 227 227 228 229 230 233 236 237 235 233 233 233 233 233 232 232 233 233 234 234 235 236 238 239 239 239 238 238 238 240 241 242 242 241 240 239 238 237 237 238 240 242 242 241 240 235 231 229 236 236 243 249 250 247 253 275 302 318 323 322 320 323 330 339 346 348 349 350 349 346 343 340 339 338 337 335 334 332 332 331 330 330 329 329 329 328 328 328 327 326 326 325 324 323 323 322 321 321 320 320 319
228 229 228 228 228 228 230 233 236 237 237 235 234 234 235 235 235 235 235 235 235 236 237 238 239 240 241 241 240 240 240 241 242 243 243 242 242 242 241 239 239 239 239 239 239 240 242 242 242 241 242 240 245 252 250 251 257 269 284 305 314 315 314 317 326 334 339 342 343 344 344 343 340 337 336 336 335 334 333 332 332 331 331 330 330 329 329 329 329 328 328 327 326 325 325 324 324 323 323 323 322 322 321
230 230 230 230 229 228 229 232 235 237 237 236 235 236 237 238 238 238 237 237 236 237 237 239 240 241 242 242 242 242 242 242 242 243 243 243 243 244 244 242 241 240 240 240 241 242 243 245 246 245 244 243 245 246 245 250 259 269 277 294 307 310 308 315 324 330 334 334 336 338 340 339 337 335 333 333 333 333 332 332 332 331 331 331 331 330 330 330 330 329 329 328 327 327 326 326 325 325 325 325 324 323 322